SCP
0 0 0 0 0 0 0 0 0 0 0 0 0 0 0 0 0 0 0 0 0 0 0 0 0 0 0 0 0 0 0 0 0 0 0 0 0 0 0 0 0 0 0 0
0 0 0 0 0 0 0 0 0 0 0 0 0 0 0 0 0 0 0 0 0 0 0 0 0 0 0 0 0 0 0 0 0 0 0 0 0 0 0 0 0 0 0 0
0 0 0 0 0 0 0 0 0 0 0 0 0 0 0 0 0 0 0 0 0 0 0 0 0 0 0 0 0 0 0 0 0 0 0 0 0 0 0 0 0 0 0 0
0 0 0 0 0 0 0 0 0 0 0 0 0 0 0 0 0 0 0 0 0 0 0 0 0 0 0 0 0 0 0 0 0 0 0 0 0 0 0 0 0 0 0 0
0 0 0 0 0 0 0 0 0 0 0 0 0 0 0 0 0 0 0 0 0 0 0 0 0 0 0 0 0 0 0 -0 0 0 0 0 0 0 0 0 0 0 0 0
0 0 0 0 0 0 0 0 0 0 0 0 0 0 0 0 0 0 0 0 0 0 0 0 0 0 0 0 0 -0 -0 -0 -0 0 0 0 0 0 0 0 0 0 0 0
0 0 0 0 0 0 0 0 0 0 0 0 0 0 0 0 0 0 0 0 0 0 0 0 0 0 0 0 -0 -0 -0 -0 -0 0 0 0 0 0 0 0 0 0 0 0
0 0 0 0 0 0 0 0 0 0 0 0 0 0 0 0 0 0 0 0 0 0 0 0 0 0 0 -0 -0 -0 -0 -0 -0 0 0 0 0 0 0 0 0 0 0 0
0 0 0 0 0 0 0 0 0 0 0 0 0 0 0 0 0 0 0 0 0 0 0 0 0 0 0 -0 -0 -0 -0 -0 -0 0 0 0 0 0 0 0 0 0 0 0
0 0 0 0 0 0 0 0 0 0 0 0 0 0 0 0 0 0 0 0 -0 0 0 0 0 0 0 0 -0 -0 -0 -0 0 0 0 0 0 0 0 0 0 0 0 0
0 0 0 0 0 0 0 0 0 0 0 0 0 0 0 0 0 0 0 0 -0 0 0 0 0 0 0 0 -0 -0 0 0 0 0 0 0 0 0 0 0 0 0 0 0
0 0 0 0 0 0 0 0 0 0 0 0 0 0 0 0 0 0 0 0 0 0 0 0 0 0 0 0 -0 0 0 0 0 0 0 0 0 0 0 0 0 0 0 0
0 0 0 0 0 0 0 0 0 0 0 0 0 0 0 0 0 0 0 0 0 0 0 0 0 0 0 0 0 0 0 0 0 0 0 0 0 0 0 0 0 0 0 0
0 0 0 0 0 0 0 0 0 0 0 0 0 0 0 0 0 0 0 0 0 0 0 0 0 0 0 0 0 0 0 0 0 0 0 0 0 0 0 0 0 0 0 0
0 -0 -0 0 0 0 0 0 0 0 0 0 0 0 0 0 0 0 0 0 0 0 0 0 0 0 0 0 0 0 0 0 0 0 0 0 0 0 0 0 0 0 0 0
-0 -0 -0 -0 0 0 -0 -0 -0 0 0 0 0 0 0 0 0 0 0 0 0 0 0 0 0 0 0 0 0 0 0 0 0 0 0 0 0 0 0 0 0 0 0 0
-0 -0 -0 -0 0 -0 -0 -0 -0 0 0 0 0 0 0 0 0 0 0 0 0 0 0 0 0 0 0 0 0 0 0 0 0 0 0 0 0 0 0 0 0 0 0 0
-0 -0 0 0 0 -0 -0 -0 -0 0 0 0 0 0 0 0 0 0 0 0 0 0 0 0 0 0 0 0 0 0 0 0 0 0 0 0 0 0 0 0 0 0 0 0
0 0 0 0 0 -0 -0 -0 0 0 0 0 0 0 0 0 0 0 0 0 0 0 0 0 0 0 0 0 0 0 0 0 0 0 0 0 0 0 0 0 0 0 0 0
0 0 0 0 0 0 0 0 0 0 0 0 0 0 0 -0 -0 -0 0 0 0 0 0 0 0 0 0 0 0 0 0 0 0 0 0 0 0 0 0 0 0 0 0 0
0 0 0 0 0 0 0 0 0 0 0 0 0 0 0 0 0 0 0 0 0 0 0 0 0 0 0 0 0 0 0 0 0 0 0 0 0 0 0 0 0 0 0 0
0 0 0 0 -0 -0 -0 0 0 0 0 0 0 0 0 0 0 0 0 0 0 0 0 0 0 0 0 0 0 0 0 0 0 0 0 0 0 0 0 0 0 0 0 0
-0 -0 0 0 -0 -0 -0 0 0 0 0 0 0 0 0 0 0 0 0 0 0 0 0 0 0 0 0 0 0 0 0 0 0 0 0 0 0 0 0 0 0 0 0 0
-0 -0 -0 0 -0 -0 -0 -0 0 0 0 0 0 0 0 0 0 0 0 0 0 0 0 0 0 0 0 0 0 0 0 0 0 0 0 0 0 0 0 0 0 0 0 0
-0 -0 -0 -0 0 -0 -0 -0 -0 0 0 0 0 0 0 0 0 0 0 0 0 0 0 0 0 0 0 0 0 0 0 0 0 0 0 0 0 0 0 0 0 0 0 0
0 0 0 0 0 -0 -0 -0 0 0 0 0 0 0 0 0 0 0 0 0 0 0 0 0 0 0 0 0 0 0 0 0 0 0 0 0 0 0 0 0 0 0 0 0
Wind_Speed
2 3 2 5 5 3 2 2 3 4 2 2 5 8 8 5 2 4 4 4 4 5 4 2 2 1 1 1 1 1 2 1 1 1 1 1 1 1 1 1 1 1 1 1
3 2 5 2 3 1 1 2 3 4 2 2 4 8 7 5 4 5 5 5 5 3 2 2 2 1 2 3 2 2 2 1 2 1 1 1 1 1 1 1 1 1 1 0
5 3 2 2 2 2 3 4 4 4 4 2 3 7 5 4 3 3 4 4 3 4 4 3 1 2 2 2 2 2 2 2 2 1 1 1 2 2 1 1 1 2 1 0
3 3 1 2 3 3 5 4 4 2 1 3 1 6 6 4 4 4 4 3 4 3 2 2 1 1 2 2 2 1 2 2 2 2 2 2 2 1 1 0 0 1 1 0
3 1 1 3 4 5 4 1 2 2 2 3 1 3 9 2 5 7 5 4 3 2 2 2 2 1 1 1 1 1 2 2 2 2 3 2 2 1 1 1 1 1 0 1
3 2 2 3 2 3 2 3 3 3 2 3 3 4 9 3 5 5 4 3 2 2 1 0 1 1 2 2 1 1 2 1 1 2 2 2 3 2 1 1 1 1 1 1
4 2 1 1 1 1 2 4 3 3 2 6 2 4 10 4 3 4 4 3 2 1 1 0 1 1 1 1 1 1 1 1 1 1 1 2 2 3 3 3 2 2 1 1
1 4 2 1 3 3 3 5 5 4 5 5 1 7 8 2 3 3 3 2 1 1 1 0 1 1 0 0 1 1 1 1 1 0 1 1 2 2 2 2 2 2 2 2
2 5 2 1 1 4 3 3 3 4 1 3 5 7 7 1 3 3 2 1 0 0 0 0 0 0 0 0 1 1 1 0 0 1 1 1 1 1 1 2 2 2 2 2
2 3 4 2 1 1 2 5 3 3 2 4 6 5 5 4 4 4 2 2 2 1 1 1 1 1 1 1 1 1 1 1 1 1 1 1 1 2 1 1 2 2 2 2
1 1 4 2 2 3 2 2 3 3 3 4 4 7 4 4 2 3 4 2 2 2 1 1 1 1 1 1 1 1 1 1 1 2 2 1 2 2 2 2 2 2 2 2
0 1 3 4 2 1 2 4 5 3 4 4 3 8 2 1 1 2 4 3 2 2 1 1 1 1 1 1 2 2 2 2 2 2 2 2 2 2 2 2 3 2 2 2
0 1 2 4 2 1 1 1 2 2 2 4 5 8 2 2 2 3 3 3 2 1 1 1 1 1 2 2 2 2 3 3 3 2 2 2 2 2 2 3 3 2 2 3
1 2 4 6 5 2 3 3 3 3 3 4 8 9 7 6 5 6 5 4 3 3 2 2 2 2 3 3 3 3 3 3 2 2 2 2 3 3 3 3 3 3 3 3
2 2 3 5 5 4 5 6 6 7 7 8 8 8 11 8 6 6 5 4 3 4 3 3 3 3 3 3 3 3 3 3 2 2 3 3 3 3 3 3 3 3 2 3
1 1 2 4 3 4 6 7 8 8 7 8 8 11 8 6 3 4 4 4 4 5 4 4 4 4 4 4 4 3 3 3 2 3 4 4 3 3 3 3 3 2 2 2
1 2 0 4 4 4 7 8 9 7 7 7 10 10 4 4 5 5 5 4 5 6 5 5 4 4 4 4 4 4 4 3 3 4 4 4 3 4 4 3 3 3 3 3
3 3 1 2 2 6 6 2 5 6 7 7 7 7 5 6 6 6 5 4 5 5 5 5 4 5 4 4 4 4 3 3 4 4 4 4 4 4 4 3 4 3 3 3
3 4 2 1 3 8 6 3 3 4 6 6 8 8 6 3 4 5 4 3 5 5 5 4 4 4 4 4 4 3 4 3 4 5 5 5 4 4 4 4 4 3 3 4
1 2 2 2 3 6 5 2 1 2 5 3 4 6 4 0 2 5 3 3 4 4 3 3 3 3 4 4 3 3 4 4 5 5 5 5 4 4 5 5 4 3 3 4
1 1 3 3 5 8 5 2 2 2 6 3 3 4 4 4 6 5 3 4 3 4 4 3 3 3 4 3 2 3 4 5 5 5 4 4 4 4 4 3 3 3 3 3
5 4 4 3 4 9 2 3 5 6 3 3 3 4 4 5 5 4 4 4 4 4 3 3 3 4 4 3 2 4 5 5 4 3 4 4 4 3 2 3 3 3 3 4
6 7 5 8 8 5 3 5 5 3 5 5 4 4 4 4 5 4 4 4 4 4 3 3 3 4 4 3 2 4 5 4 3 3 4 4 3 3 2 3 3 3 3 3
5 2 3 6 9 7 7 7 7 6 6 6 5 5 4 5 5 5 4 4 4 3 3 3 3 4 5 4 3 4 4 3 3 3 4 3 2 2 2 2 3 3 4 4
6 4 4 8 9 7 7 7 7 6 5 5 4 4 5 4 5 4 4 4 4 3 3 2 3 4 5 5 4 4 3 2 3 3 3 3 2 2 2 2 3 4 4 4
6 8 8 9 7 6 7 5 4 5 6 5 4 4 3 4 4 4 4 4 4 3 3 3 3 4 5 5 5 4 3 2 2 3 2 2 2 2 2 2 3 4 5 6
Wind_Direction
44 77 207 219 202 199 174 192 258 267 284 251 251 265 272 271 273 273 271 262 257 258 274 293 283 252 219 153 142 141 104 96 100 115 136 155 134 108 90 76 55 85 84 109
56 253 244 215 189 178 180 238 268 291 314 257 274 274 270 261 245 243 250 257 254 265 294 293 281 209 188 176 171 158 146 146 147 162 166 170 142 122 105 50 39 35 64 92
181 244 237 171 183 196 235 218 238 267 323 314 304 296 273 270 246 262 260 260 255 238 241 248 229 197 186 179 186 174 164 147 146 123 101 73 78 75 51 28 20 4 4 93
225 266 229 192 211 189 243 223 223 250 308 297 16 294 288 281 290 284 278 274 260 250 244 237 220 208 203 207 195 168 151 132 139 136 133 125 135 153 185 188 243 337 346 339
241 233 201 223 226 187 223 211 189 209 209 299 301 250 285 311 288 282 274 267 264 246 214 216 211 220 212 186 175 172 143 129 136 143 154 160 170 182 166 138 174 238 318 328
247 239 203 222 235 184 167 67 59 55 81 273 228 200 280 250 255 289 285 269 257 248 227 238 16 43 27 40 69 112 148 145 147 153 168 184 188 180 165 176 200 230 246 275
309 275 254 149 84 70 102 95 37 355 338 254 203 213 255 260 265 276 280 269 255 221 172 101 60 59 45 41 40 46 102 110 133 148 192 221 210 196 198 205 209 221 232 259
257 280 243 203 179 179 185 153 161 201 235 278 258 238 255 266 295 298 283 253 194 161 133 173 216 184 181 25 39 50 56 40 38 356 253 259 226 209 216 224 223 227 233 238
207 263 305 248 219 153 158 187 160 136 171 278 266 279 297 309 332 338 336 13 349 241 138 236 280 254 226 260 263 235 234 316 336 313 306 291 270 239 234 234 235 237 237 237
167 268 298 301 79 17 158 148 121 141 175 259 283 269 262 301 306 322 327 311 314 335 337 325 302 282 272 253 265 276 259 256 285 293 287 301 304 292 260 237 245 249 252 248
112 194 304 338 196 196 142 146 147 150 171 181 264 270 230 228 263 297 303 289 290 289 279 279 286 286 288 303 292 285 287 292 290 283 283 291 288 286 276 259 251 251 254 248
260 141 263 258 259 284 189 183 163 180 225 196 216 267 282 199 278 297 301 310 291 279 278 266 275 300 306 293 284 279 279 271 265 266 268 265 269 271 268 270 266 259 259 256
124 110 348 333 327 358 246 207 175 138 147 184 211 261 312 6 338 319 307 313 322 312 295 293 289 287 279 272 269 265 264 263 263 257 261 273 277 272 264 264 269 265 263 271
95 167 197 222 245 216 247 239 196 168 198 227 230 258 288 303 310 312 308 303 306 302 294 291 285 279 280 279 276 271 267 260 261 262 260 261 263 262 260 259 261 263 260 259
103 216 248 264 272 249 240 238 218 212 212 220 246 249 267 276 278 282 288 297 304 305 302 295 290 286 287 288 284 274 272 271 266 260 259 260 262 263 260 258 259 259 251 258
101 208 281 284 273 265 266 247 226 230 233 241 261 268 263 272 275 280 284 281 285 292 295 294 289 288 284 278 277 277 272 268 261 256 259 262 255 256 257 256 256 255 256 260
193 159 224 273 298 321 272 236 211 213 213 206 231 248 269 283 277 271 271 266 270 280 285 283 281 277 276 273 268 266 265 269 260 257 259 259 251 252 256 258 251 252 253 256
177 166 189 270 356 248 249 216 192 212 238 221 242 258 255 257 275 273 256 250 269 278 281 283 283 285 286 283 279 273 272 263 258 257 254 251 245 248 255 248 242 247 252 255
192 172 170 185 250 276 289 262 189 201 265 226 231 257 271 284 315 291 256 240 255 268 271 274 275 278 281 279 275 275 269 263 259 257 250 247 243 246 252 249 246 246 250 256
86 154 167 175 231 251 265 292 240 133 284 260 217 244 252 310 303 277 276 283 285 288 285 287 297 296 284 280 282 274 269 261 258 260 257 251 245 242 245 245 245 249 252 256
126 160 198 205 240 264 268 292 109 161 262 282 229 237 220 218 234 264 298 298 286 290 289 289 295 289 280 282 280 273 272 263 267 274 273 261 251 246 241 243 243 244 254 260
187 183 201 178 221 257 246 133 191 230 276 283 263 247 242 252 272 281 283 284 288 295 296 297 298 295 294 286 268 274 271 275 286 285 276 262 258 254 242 237 244 241 242 251
207 200 199 204 225 257 213 225 247 254 268 267 255 254 250 257 266 271 273 277 283 283 286 292 290 299 305 297 266 268 283 294 295 286 277 268 265 262 250 239 248 249 242 249
252 221 221 258 266 265 260 262 269 261 255 259 251 252 245 248 258 265 270 274 283 285 287 296 304 304 305 305 293 272 286 292 285 279 279 276 264 269 272 260 249 248 244 248
227 190 228 258 274 292 274 252 261 268 265 266 264 252 241 243 259 260 266 272 275 282 291 291 291 291 296 303 302 295 287 283 278 276 274 278 272 265 269 274 267 264 250 248
200 193 200 239 241 238 267 274 272 268 267 259 256 266 262 238 249 262 265 267 272 278 282 288 289 289 296 304 304 304 298 277 267 277 277 277 279 278 278 283 302 292 287 285